EW5463 Weather Reports


time (UTC)temp
C
wind
direction
speed
KPH
gust
KPH
rain 1hr
cm
rain 24hr
cm
rain mn
cm
humidity
%
barometer
mb
20260505124550 16 0 0.0 0.0 0.00 0.00 0.00 91 1017.4
20260505123047 14 0 0.0 0.0 0.00 0.00 0.00 93 1017.2
20260505121544 13 0 0.0 0.0 0.00 0.00 0.00 93 1017.1
20260505120043 12 0 0.0 0.0 0.00 0.00 0.00 92 1017.0
20260505114543 12 0 0.0 0.0 0.00 0.00 0.00 92 1017.1
20260505113050 11 0 0.0 0.0 0.00 0.00 0.00 91 1017.1
20260505111540 11 0 0.0 0.0 0.00 0.00 0.00 90 1016.8
20260505101558 12 0 0.0 0.0 0.00 0.00 0.00 88 1016.4
20260505100058 12 0 0.0 0.0 0.00 0.00 0.00 87 1016.2
20260505094540 12 0 0.0 0.0 0.00 0.00 0.00 86 1016.1
20260505093053 12 0 0.0 0.0 0.00 0.00 0.00 86 1016.0
20260505091543 13 0 0.0 0.0 0.00 0.00 0.00 85 1015.7
20260505090044 13 0 0.0 0.0 0.00 0.00 0.00 85 1015.6
20260505084541 13 0 0.0 0.0 0.00 0.00 0.00 84 1015.7
20260505083040 13 0 0.0 0.0 0.00 0.00 0.00 83 1015.6
20260505081558 13 0 0.0 0.0 0.00 0.00 0.00 83 1015.5
20260505080051 14 0 0.0 0.0 0.00 0.00 0.00 82 1015.4
20260505074542 14 0 0.0 0.0 0.00 0.00 0.00 80 1015.3
20260505073041 15 0 0.0 0.0 0.00 0.00 0.00 80 1015.4
20260505071548 15 0 0.0 0.0 0.00 0.00 0.00 78 1015.3
20260505070126 15 0 0.0 0.0 0.00 0.00 0.00 78 1015.4
20260505064538 15 0 0.0 0.0 0.00 0.00 0.00 76 1015.4
20260505063049 15 0 0.0 0.0 0.00 0.00 0.00 76 1015.6
20260505061545 16 0 0.0 0.0 0.00 0.00 0.00 75 1015.7
20260505060043 16 0 0.0 0.0 0.00 0.00 0.00 73 1015.6
20260505054546 16 0 0.0 0.0 0.00 0.00 0.00 73 1015.8
20260505053048 17 0 0.0 0.0 0.00 0.00 0.00 71 1015.8
20260505051544 17 0 0.0 0.0 0.00 0.00 0.00 70 1016.0
20260505041544 18 0 0.0 0.0 0.00 0.00 0.00 65 1016.1
20260505040046 18 0 0.0 0.0 0.00 0.00 0.00 64 1016.0
20260505034547 18 270 0.0 3.2 0.00 0.00 0.00 63 1016.2
20260505033045 19 0 0.0 4.8 0.00 0.00 0.00 62 1016.2
20260505031551 19 270 0.0 6.4 0.00 0.00 0.00 61 1016.3
20260505030045 20 0 0.0 4.8 0.00 0.00 0.00 60 1016.3
20260505024544 20 270 0.0 4.8 0.00 0.00 0.00 60 1016.2
20260505023048 20 0 1.6 4.8 0.00 0.00 0.00 59 1016.0
20260505021545 20 270 1.6 6.4 0.00 0.00 0.00 57 1016.1
20260505020040 21 270 3.2 6.4 0.00 0.00 0.00 56 1016.0
20260505014550 21 270 1.6 8.0 0.00 0.00 0.00 55 1016.0
20260505013042 21 270 3.2 6.4 0.00 0.00 0.00 54 1015.7
20260505011543 22 270 3.2 6.4 0.00 0.00 0.00 51 1015.3
20260505010104 22 270 3.2 9.7 0.00 0.00 0.00 48 1015.1
20260505004546 22 270 1.6 4.8 0.00 0.00 0.00 44 1014.9
20260505003047 22 270 1.6 4.8 0.00 0.00 0.00 43 1014.6
20260505001543 23 270 3.2 4.8 0.00 0.00 0.00 41 1014.5
20260505000048 23 270 3.2 6.4 0.00 0.00 0.00 39 1014.5
20260504234548 24 270 3.2 8.0 0.00 0.00 0.00 38 1014.4
20260504233045 25 270 3.2 8.0 0.00 0.00 0.00 38 1014.2
20260504231547 25 270 4.8 9.7 0.00 0.00 0.00 35 1014.1
20260504230050 25 270 3.2 6.4 0.00 0.00 0.00 33 1014.1
20260504224543 26 270 3.2 12.9 0.00 0.00 0.00 33 1014.0
20260504223059 26 270 3.2 8.0 0.00 0.00 0.00 34 1014.0
20260504221559 26 270 1.6 9.7 0.00 0.00 0.00 33 1014.1
20260504220046 26 270 1.6 6.4 0.00 0.00 0.00 31 1014.0
20260504214543 27 270 0.0 8.0 0.00 0.00 0.00 30 1014.1
20260504213059 27 270 4.8 9.7 0.00 0.00 0.00 28 1014.0
20260504211547 27 270 1.6 8.0 0.00 0.00 0.00 28 1013.9
20260504210049 27 270 6.4 12.9 0.00 0.00 0.00 29 1014.0
20260504204542 27 270 3.2 12.9 0.00 0.00 0.00 29 1014.2
20260504203050 27 270 1.6 12.9 0.00 0.00 0.00 27 1014.4
20260504201542 27 270 1.6 9.7 0.00 0.00 0.00 29 1014.5
20260504200044 27 270 3.2 12.9 0.00 0.00 0.00 29 1014.6
20260504194544 27 270 1.6 14.5 0.00 0.00 0.00 29 1015.0
20260504193045 27 270 0.0 8.0 0.00 0.00 0.00 28 1015.1
20260504191545 28 270 1.6 4.8 0.00 0.00 0.00 27 1015.1
20260504190043 28 270 3.2 12.9 0.00 0.00 0.00 27 1015.3
20260504184543 28 270 3.2 8.0 0.00 0.00 0.00 27 1015.4
20260504183043 28 0 0.0 8.0 0.00 0.00 0.00 28 1015.6
20260504181546 28 270 1.6 9.7 0.00 0.00 0.00 26 1015.7
20260504180049 29 270 0.0 8.0 0.00 0.00 0.00 27 1015.8
20260504174544 29 270 3.2 8.0 0.00 0.00 0.00 28 1016.0
20260504173044 28 270 3.2 12.9 0.00 0.00 0.00 28 1016.1
20260504171545 28 270 0.0 6.4 0.00 0.00 0.00 30 1016.2